This is the latest recevied weather packets stored in our database for station/object DL7GAI-7. If no packets are shown the sender has not sent any weather packets the latest 10 day(s).
| Time | Temp. | Humidity | Pressure | Rain* | Wind** | Luminosity | Snow |
|---|---|---|---|---|---|---|---|
| 1777574475 | 15.56° C | 21% | 1022.5 hPa | 0 mm | 4.47 m/s, 45° | - | - |
| 1777573620 | 15.56° C | 21% | 1022.5 hPa | 0 mm | 4.47 m/s, 45° | - | - |
| 1777572800 | 15.56° C | 21% | 1022.5 hPa | 0 mm | 4.47 m/s, 45° | - | - |
| 1777571995 | 16.11° C | 22% | 1022.3 hPa | 0 mm | 4.92 m/s, 45° | - | - |
| 1777571155 | 16.11° C | 22% | 1022.3 hPa | 0 mm | 4.92 m/s, 45° | - | - |
| 1777570350 | 16.67° C | 22% | 1022.1 hPa | 0 mm | 6.26 m/s, 45° | - | - |
| 1777569625 | 16.67° C | 22% | 1022.1 hPa | 0 mm | 6.26 m/s, 45° | - | - |
| 1777568835 | 16.67° C | 22% | 1022.1 hPa | 0 mm | 6.26 m/s, 45° | - | - |
| 1777567975 | 17.22° C | 21% | 1021.9 hPa | 0 mm | 5.81 m/s, 45° | - | - |
| 1777567155 | 17.22° C | 21% | 1021.9 hPa | 0 mm | 5.81 m/s, 45° | - | - |
| 1777566340 | 17.22° C | 21% | 1021.8 hPa | 0 mm | 5.36 m/s, 45° | - | - |
| 1777565535 | 17.22° C | 21% | 1021.8 hPa | 0 mm | 5.36 m/s, 45° | - | - |
| 1777564665 | 17.78° C | 24% | 1021.7 hPa | 0 mm | 6.26 m/s, 45° | - | - |
| 1777563875 | 17.78° C | 24% | 1021.7 hPa | 0 mm | 6.26 m/s, 45° | - | - |
| 1777563045 | 17.22° C | 23% | 1021.8 hPa | 0 mm | 6.71 m/s, 45° | - | - |
| 1777562175 | 17.22° C | 23% | 1021.8 hPa | 0 mm | 6.71 m/s, 45° | - | - |
| 1777561315 | 17.22° C | 25% | 1022.1 hPa | 0 mm | 6.26 m/s, 90° | - | - |
| 1777560455 | 17.22° C | 25% | 1022.1 hPa | 0 mm | 6.26 m/s, 90° | - | - |
| 1777559691 | 17.22° C | 27% | 1021.9 hPa | 0 mm | 5.81 m/s, 45° | - | - |
| 1777558845 | 17.22° C | 27% | 1021.9 hPa | 0 mm | 5.81 m/s, 45° | - | - |
| 1777558057 | 17.22° C | 27% | 1021.9 hPa | 0 mm | 5.81 m/s, 45° | - | - |
| 1777557275 | 16.67° C | 27% | 1022.3 hPa | 0 mm | 5.36 m/s, 90° | - | - |
| 1777556413 | 16.67° C | 27% | 1022.3 hPa | 0 mm | 5.36 m/s, 90° | - | - |
| 1777555610 | 16.67° C | 30% | 1022.3 hPa | 0 mm | 6.26 m/s, 90° | - | - |
| 1777554765 | 16.67° C | 30% | 1022.3 hPa | 0 mm | 6.26 m/s, 90° | - | - |
* Rain latest hour (hover to see other rain measurements)
** Current wind speed in m/s (hover to see current wind gust speed)